Time,TemperatureF,DewpointF,PressureIn,WindDirection,WindDirectionDegrees,WindSpeedMPH,WindSpeedGustMPH,Humidity,HourlyPrecipIn,Conditions,Clouds,dailyrainin,SoftwareType,DateUTC
2013-02-02 00:02:00,21.0,-99.9,-100.00,SW,236,46.0,53.0,-999,-99.99,,,-99.99,,2013-02-02 07:02:00,
2013-02-02 00:12:00,21.0,-99.9,-100.00,SW,236,46.0,53.0,-999,-99.99,,,-99.99,,2013-02-02 07:12:00,
2013-02-02 00:22:00,19.0,-99.9,-100.00,WSW,240,40.0,53.0,-999,-99.99,,,-99.99,,2013-02-02 07:22:00,
2013-02-02 00:32:00,19.0,-99.9,-100.00,WSW,244,40.0,53.0,-999,-99.99,,,-99.99,,2013-02-02 07:32:00,
2013-02-02 00:42:00,19.0,-99.9,-100.00,WSW,244,40.0,53.0,-999,-99.99,,,-99.99,,2013-02-02 07:42:00,
2013-02-02 00:52:00,19.0,-99.9,-100.00,SW,235,46.0,58.0,-999,-99.99,,,-99.99,,2013-02-02 07:52:00,
2013-02-02 01:01:00,19.0,-99.9,-100.00,SW,236,38.0,55.0,-999,-99.99,,,-99.99,,2013-02-02 08:01:00,
2013-02-02 01:11:00,19.0,-99.9,-100.00,SW,236,38.0,55.0,-999,-99.99,,,-99.99,,2013-02-02 08:11:00,
2013-02-02 01:22:00,19.0,-99.9,-100.00,WSW,243,39.0,56.0,-999,-99.99,,,-99.99,,2013-02-02 08:22:00,
2013-02-02 01:32:00,19.0,-99.9,-100.00,WSW,243,39.0,56.0,-999,-99.99,,,-99.99,,2013-02-02 08:32:00,
2013-02-02 01:42:00,19.0,-99.9,-100.00,WSW,243,39.0,56.0,-999,-99.99,,,-99.99,,2013-02-02 08:42:00,
2013-02-02 01:53:00,19.0,-99.9,-100.00,WSW,245,31.0,53.0,-999,-99.99,,,-99.99,,2013-02-02 08:53:00,
2013-02-02 02:02:00,19.0,-99.9,-100.00,WSW,241,42.0,54.0,-999,-99.99,,,-99.99,,2013-02-02 09:02:00,
2013-02-02 02:11:00,19.0,-99.9,-100.00,WSW,241,42.0,54.0,-999,-99.99,,,-99.99,,2013-02-02 09:11:00,
2013-02-02 02:22:00,19.0,-99.9,-100.00,WSW,251,45.0,51.0,-999,-99.99,,,-99.99,,2013-02-02 09:22:00,
2013-02-02 02:32:00,19.0,-99.9,-100.00,West,262,41.0,48.0,-999,-99.99,,,-99.99,,2013-02-02 09:32:00,
2013-02-02 02:42:00,19.0,-99.9,-100.00,West,262,41.0,48.0,-999,-99.99,,,-99.99,,2013-02-02 09:42:00,
2013-02-02 02:52:00,19.0,-99.9,-100.00,West,259,35.0,53.0,-999,-99.99,,,-99.99,,2013-02-02 09:52:00,
2013-02-02 03:02:00,19.0,-99.9,-100.00,WSW,252,36.0,51.0,-999,-99.99,,,-99.99,,2013-02-02 10:02:00,
2013-02-02 03:11:00,19.0,-99.9,-100.00,WSW,252,36.0,51.0,-999,-99.99,,,-99.99,,2013-02-02 10:11:00,
2013-02-02 03:22:00,19.0,-99.9,-100.00,WSW,247,35.0,44.0,-999,-99.99,,,-99.99,,2013-02-02 10:22:00,
2013-02-02 03:32:00,19.0,-99.9,-100.00,WSW,247,35.0,44.0,-999,-99.99,,,-99.99,,2013-02-02 10:32:00,
2013-02-02 03:52:00,19.0,-99.9,-100.00,WSW,238,30.0,46.0,-999,-99.99,,,-99.99,,2013-02-02 10:52:00,
2013-02-02 04:02:00,18.0,-99.9,-100.00,SW,236,29.0,47.0,-999,-99.99,,,-99.99,,2013-02-02 11:02:00,
2013-02-02 04:11:00,18.0,-99.9,-100.00,SW,236,29.0,47.0,-999,-99.99,,,-99.99,,2013-02-02 11:11:00,
2013-02-02 04:22:00,18.0,-99.9,-100.00,WSW,246,29.0,41.0,-999,-99.99,,,-99.99,,2013-02-02 11:22:00,
2013-02-02 04:32:00,18.0,-99.9,-100.00,WSW,246,29.0,41.0,-999,-99.99,,,-99.99,,2013-02-02 11:32:00,
2013-02-02 04:52:00,18.0,-99.9,-100.00,SW,234,42.0,48.0,-999,-99.99,,,-99.99,,2013-02-02 11:52:00,
2013-02-02 05:02:00,18.0,-99.9,-100.00,SW,229,45.0,50.0,-999,-99.99,,,-99.99,,2013-02-02 12:02:00,
2013-02-02 05:11:00,18.0,-99.9,-100.00,SW,229,45.0,50.0,-999,-99.99,,,-99.99,,2013-02-02 12:11:00,
2013-02-02 05:23:00,18.0,-99.9,-100.00,WSW,246,33.0,50.0,-999,-99.99,,,-99.99,,2013-02-02 12:23:00,
2013-02-02 05:32:00,18.0,-99.9,-100.00,WSW,245,24.0,54.0,-999,-99.99,,,-99.99,,2013-02-02 12:32:00,
2013-02-02 05:42:00,18.0,-99.9,-100.00,WSW,245,24.0,54.0,-999,-99.99,,,-99.99,,2013-02-02 12:42:00,
2013-02-02 05:53:00,18.0,-99.9,-100.00,WSW,242,32.0,56.0,-999,-99.99,,,-99.99,,2013-02-02 12:53:00,
2013-02-02 06:00:00,18.0,-99.9,-100.00,WSW,237,34.0,46.0,-999,-99.99,,,-99.99,,2013-02-02 13:00:00,
2013-02-02 06:03:00,18.0,-99.9,-100.00,WSW,247,39.0,54.0,-999,-99.99,,,-99.99,,2013-02-02 13:03:00,
2013-02-02 06:11:00,18.0,-99.9,-100.00,WSW,247,39.0,54.0,-999,-99.99,,,-99.99,,2013-02-02 13:11:00,
2013-02-02 06:22:00,18.0,-99.9,-100.00,SW,232,31.0,47.0,-999,-99.99,,,-99.99,,2013-02-02 13:22:00,
2013-02-02 06:33:00,18.0,-99.9,-100.00,West,260,32.0,44.0,-999,-99.99,,,-99.99,,2013-02-02 13:33:00,
2013-02-02 06:43:00,18.0,-99.9,-100.00,West,260,32.0,44.0,-999,-99.99,,,-99.99,,2013-02-02 13:43:00,
2013-02-02 06:52:00,18.0,-99.9,-100.00,WSW,237,34.0,46.0,-999,-99.99,,,-99.99,,2013-02-02 13:52:00,
2013-02-02 07:00:00,19.0,-99.9,-100.00,WSW,248,32.0,45.0,-999,-99.99,,,-99.99,,2013-02-02 14:00:00,
2013-02-02 07:52:00,19.0,-99.9,-100.00,WSW,248,32.0,45.0,-999,-99.99,,,-99.99,,2013-02-02 14:52:00,
2013-02-02 08:00:00,21.0,-99.9,-100.00,West,263,28.0,36.0,-999,-99.99,,,-99.99,,2013-02-02 15:00:00,
2013-02-02 08:52:00,21.0,-99.9,-100.00,West,263,28.0,36.0,-999,-99.99,,,-99.99,,2013-02-02 15:52:00,
2013-02-02 09:00:00,23.0,-99.9,-100.00,WSW,245,26.0,42.0,-999,-99.99,,,-99.99,,2013-02-02 16:00:00,
2013-02-02 09:52:00,23.0,-99.9,-100.00,WSW,245,26.0,42.0,-999,-99.99,,,-99.99,,2013-02-02 16:52:00,
2013-02-02 10:00:00,27.0,-99.9,-100.00,SW,235,40.0,44.0,-999,-99.99,,,-99.99,,2013-02-02 17:00:00,
2013-02-02 10:53:00,27.0,-99.9,-100.00,SW,235,40.0,44.0,-999,-99.99,,,-99.99,,2013-02-02 17:53:00,
2013-02-02 11:52:00,28.0,-99.9,-100.00,WSW,239,39.0,45.0,-999,-99.99,,,-99.99,,2013-02-02 18:52:00,
2013-02-02 12:02:00,30.0,-99.9,-100.00,WSW,238,32.0,47.0,-999,-99.99,,,-99.99,,2013-02-02 19:02:00,
2013-02-02 12:12:00,30.0,-99.9,-100.00,WSW,238,32.0,47.0,-999,-99.99,,,-99.99,,2013-02-02 19:12:00,
2013-02-02 12:22:00,30.0,-99.9,-100.00,WSW,250,31.0,52.0,-999,-99.99,,,-99.99,,2013-02-02 19:22:00,
2013-02-02 12:33:00,30.0,-99.9,-100.00,WSW,240,37.0,50.0,-999,-99.99,,,-99.99,,2013-02-02 19:33:00,
2013-02-02 12:42:00,30.0,-99.9,-100.00,WSW,240,37.0,50.0,-999,-99.99,,,-99.99,,2013-02-02 19:42:00,
2013-02-02 12:52:00,32.0,-99.9,-100.00,WSW,242,44.0,54.0,-999,-99.99,,,-99.99,,2013-02-02 19:52:00,
2013-02-02 13:02:00,32.0,-99.9,-100.00,WSW,250,40.0,49.0,-999,-99.99,,,-99.99,,2013-02-02 20:02:00,
2013-02-02 13:12:00,32.0,-99.9,-100.00,WSW,250,40.0,49.0,-999,-99.99,,,-99.99,,2013-02-02 20:12:00,
2013-02-02 13:22:00,32.0,-99.9,-100.00,WSW,247,25.0,48.0,-999,-99.99,,,-99.99,,2013-02-02 20:22:00,
2013-02-02 13:32:00,32.0,-99.9,-100.00,SW,236,40.0,44.0,-999,-99.99,,,-99.99,,2013-02-02 20:32:00,
2013-02-02 13:52:00,32.0,-99.9,-100.00,SW,232,42.0,53.0,-999,-99.99,,,-99.99,,2013-02-02 20:52:00,
2013-02-02 14:00:00,32.0,-99.9,-100.00,SW,232,38.0,42.0,-999,-99.99,,,-99.99,,2013-02-02 21:00:00,
2013-02-02 14:02:00,32.0,-99.9,-100.00,SW,231,46.0,48.0,-999,-99.99,,,-99.99,,2013-02-02 21:02:00,
2013-02-02 14:11:00,32.0,-99.9,-100.00,SW,231,46.0,48.0,-999,-99.99,,,-99.99,,2013-02-02 21:11:00,
2013-02-02 14:22:00,34.0,-99.9,-100.00,WSW,244,29.0,43.0,-999,-99.99,,,-99.99,,2013-02-02 21:22:00,
2013-02-02 14:32:00,34.0,-99.9,-100.00,WSW,244,29.0,43.0,-999,-99.99,,,-99.99,,2013-02-02 21:32:00,
2013-02-02 14:52:00,32.0,-99.9,-100.00,SW,232,38.0,42.0,-999,-99.99,,,-99.99,,2013-02-02 21:52:00,
2013-02-02 15:00:00,34.0,-99.9,-100.00,WSW,241,23.0,42.0,-999,-99.99,,,-99.99,,2013-02-02 22:00:00,
2013-02-02 15:52:00,34.0,-99.9,-100.00,WSW,241,23.0,42.0,-999,-99.99,,,-99.99,,2013-02-02 22:52:00,
2013-02-02 16:00:00,34.0,-99.9,-100.00,WSW,239,31.0,43.0,-999,-99.99,,,-99.99,,2013-02-02 23:00:00,
2013-02-02 16:52:00,34.0,-99.9,-100.00,WSW,239,31.0,43.0,-999,-99.99,,,-99.99,,2013-02-02 23:52:00,
2013-02-02 17:52:00,30.0,-99.9,-100.00,West,262,17.0,27.0,-999,-99.99,,,-99.99,,2013-02-03 00:52:00,
2013-02-02 18:00:00,27.0,-99.9,-100.00,SW,229,12.0,19.0,-999,-99.99,,,-99.99,,2013-02-03 01:00:00,
2013-02-02 18:52:00,27.0,-99.9,-100.00,SW,229,12.0,19.0,-999,-99.99,,,-99.99,,2013-02-03 01:52:00,
2013-02-02 19:53:00,23.0,-99.9,-100.00,SW,229,21.0,24.0,-999,-99.99,,,-99.99,,2013-02-03 02:53:00,
2013-02-02 20:00:00,23.0,-99.9,-100.00,SW,231,21.0,27.0,-999,-99.99,,,-99.99,,2013-02-03 03:00:00,
2013-02-02 20:52:00,23.0,-99.9,-100.00,SW,231,21.0,27.0,-999,-99.99,,,-99.99,,2013-02-03 03:52:00,
2013-02-02 21:00:00,23.0,-99.9,-100.00,SW,229,25.0,27.0,-999,-99.99,,,-99.99,,2013-02-03 04:00:00,
2013-02-02 21:52:00,23.0,-99.9,-100.00,SW,229,25.0,27.0,-999,-99.99,,,-99.99,,2013-02-03 04:52:00,
2013-02-02 22:00:00,23.0,-99.9,-100.00,SW,224,22.0,26.0,-999,-99.99,,,-99.99,,2013-02-03 05:00:00,
2013-02-02 22:53:00,23.0,-99.9,-100.00,SW,224,22.0,26.0,-999,-99.99,,,-99.99,,2013-02-03 05:53:00,
2013-02-02 23:00:00,23.0,-99.9,-100.00,SSW,196,14.0,15.0,-999,-99.99,,,-99.99,,2013-02-03 06:00:00,
2013-02-02 23:52:00,23.0,-99.9,-100.00,SSW,196,14.0,15.0,-999,-99.99,,,-99.99,,2013-02-03 06:52:00,